Location: Thunder Bay Observatory
(48.2803°N, 89.5372°W)
Time: 05:56:04
(UTC-04:00)

ISS - Visible Passes

Search period start: 19 July 2019 00:00
Search period end: 29 July 2019 00:00
Orbit: 409 x 418 km, 51.6° (Epoch: 19 July)

Date Brightness Start Highest point End Pass type
(mag) Time Alt. Az. Time Alt. Az. Time Alt. Az.
19 Jul -2.9 00:51:03 10° W 00:54:20 50° N 00:57:35 10° ENE visible
19 Jul -3.0 02:28:04 10° WNW 02:31:20 51° N 02:34:36 10° E visible
19 Jul -3.7 04:04:49 10° WNW 04:08:04 52° SSW 04:11:18 10° SE visible
19 Jul -3.2 22:25:16 10° SW 22:28:22 37° SSE 22:31:29 10° ENE visible
20 Jul -3.2 00:01:40 10° W 00:04:59 60° NNW 00:08:17 10° ENE visible
20 Jul -2.7 01:38:44 10° WNW 01:41:59 46° N 01:45:12 10° E visible
20 Jul -3.9 03:15:30 10° WNW 03:18:35 71° WSW 03:18:35 71° WSW visible
20 Jul -3.7 23:12:18 10° WSW 23:15:39 78° NNW 23:18:59 10° ENE visible
21 Jul -2.6 00:49:22 10° WNW 00:52:36 44° N 00:55:49 10° ENE visible
21 Jul -3.4 02:26:12 10° WNW 02:29:00 58° NW 02:29:00 58° NW visible
21 Jul -3.8 22:23:00 10° WSW 22:26:21 76° SSE 22:29:41 10° ENE visible
21 Jul -2.7 23:59:57 10° W 00:03:11 46° N 00:06:26 10° ENE visible
22 Jul -3.3 01:36:54 10° WNW 01:40:12 59° NNE 01:40:35 54° NE visible
22 Jul -2.9 23:10:30 10° W 23:13:48 52° N 23:17:04 10° ENE visible
23 Jul -2.9 00:47:33 10° WNW 00:50:49 50° N 00:52:26 25° ENE visible
23 Jul -1.5 02:24:17 10° WNW 02:25:13 17° WNW 02:25:13 17° WNW visible
23 Jul -3.3 22:21:05 10° W 22:24:24 64° NNW 22:27:44 10° ENE visible
23 Jul -2.7 23:58:09 10° WNW 00:01:23 45° N 00:04:24 11° ENE visible
24 Jul -2.8 01:34:56 10° WNW 01:37:13 40° WNW 01:37:13 40° WNW visible
24 Jul -2.7 23:08:44 10° WNW 23:11:58 44° N 23:15:11 10° ENE visible
25 Jul -3.6 00:45:35 10° WNW 00:48:56 71° NNE 00:49:16 63° ENE visible
25 Jul -2.7 22:19:16 10° W 22:22:31 47° N 22:25:46 10° ENE visible
25 Jul -3.2 23:56:14 10° WNW 23:59:32 56° NNE 00:01:22 23° E visible
26 Jul -1.6 01:33:00 10° WNW 01:34:10 19° W 01:34:10 19° W visible
26 Jul -2.9 23:06:50 10° WNW 23:10:06 48° N 23:13:21 10° E visible
27 Jul -3.4 00:43:34 10° WNW 00:46:19 53° W 00:46:19 53° W visible
27 Jul -2.7 22:17:24 10° WNW 22:20:37 45° N 22:23:51 10° ENE visible
27 Jul -3.9 23:54:11 10° WNW 23:57:32 88° NNE 23:58:30 44° ESE visible
28 Jul -3.5 23:04:47 10° WNW 23:08:08 66° NNE 23:10:42 16° E visible
